Showing default

CONNECTA IOT-11, 64557

Orbit data source: Space-Track

CONNECTA IOT-11, 64557 is a payload satellite owned by Plan-S (TR) in SSO that was launched on Mon, 23 Jun 2025 UTC via an FALCON 9 launch vehicle from the Air Force Western Test Range (AFWTR). Payload-class satellites include a variety of spacecraft equipped with specific instruments for various scientific and technological missions. These include communications satellites like Starlink; space stations such as the ISS; scientific satellites like the Hubble; Earth observation satellites from companies like Planet Labs, Umbra, and HawkEye 360; GPS; miniature CubeSats for education and research; and military/defense satellites.

Loading next visibility...
Identifier
64557, 2025-135AF
Orbit
SSO
Country
Flag of TRTR / TURK
Related business
Manufacturer
Plan-S
Mission
Operational Commercial Communications
Bus & Motor
CUBESAT 6U, Unknown motor
Mass
10 kg wet, 10 kg dry
Launch date (UTC)
2025-06-23 (1 year ago)
Launch vehicle
FALCON 9
Launch site
Air Force Western Test Range (AFWTR)
Object type
Payload
Rocket body
Debris
Shape & HBR
Box, 2.2 m
Radar Cross Section
0.080 m², Medium (>0.1 m² and < 1m²)

Expand to show TLE details & history
Last TLE update: 12 hours ago

TLE from 12 hours ago
0 CONNECTA IOT-11
1 64557U 25135AF  26178.30730575  .00003500  00000-0  16327-3 0  9997
2 64557  97.4726 293.5226 0001111  37.8743 322.2570 15.20514524 56404
Epoch: 2026-06-27T07:22Z
TLE epoch observation values (Epoch: 2026-06-27T07:22:31.216Z)
Latitude
-0.00007°
Longitude
-92.5308°
Altitude
506.772 km
Speed
7.611 km/s
True Right ascension
19h 34m 05s
True Declination
0° 00' 00"
Sunlit
Object was in full shadow at epoch
Visualization orbit readout
Latitude
Unknown
Longitude
Unknown
Altitude
Unknown
Speed
Unknown
Apparent Right ascension
Unknown
Apparent Declination
Unknown
Sunlit
N/A
Visualization observer readout
Local Sidereal Time
06:58:50
Azimuth
Unknown
Elevation
Unknown
Doppler factor
Unknown
Orbital elements
Apogee altitude
502.02 km
Perigee altitude
500.491 km
Semi-major axis
6,879.393 km
Eccentricity
0.00011
Inclination
97.4726°
RAAN
293.5226°
Arg. of periapsis
37.8743°
True anomaly
322.24921°
Mean anomaly
322.257°
Eccentric anomaly
322.2531°
Mean motion
3.8038 °/min
Orbital period
94.64 mins
BSTAR
0.00016327
Loading maneuver chart data...
Computing Atmospheric mass density...
Loading historical data...
Loading historical data...
Loading historical data...
Loading historical data...
Loading historical data...
Loading historical data...
Loading historical data...

Documentation

Showing up to 5 results
|